sat.trackr.live / text

‹ back to catalog

STARLINK-32084

NORAD 60347 · 2024-136U

PAYLOAD ACTIVE UNKNOWN

§ Identity

Operator
Country
US
Launch date
2024-08-02
Launch site
AFETR
Launch vehicle
Mass (kg)
RCS (m²)

Purposes: comms

External: N2YO · Heavens-Above · Gunter

§ Orbital elements

Epoch: 2026-05-25T03:36:05.781024Z

Period
94.11 min
Inclination
53.1613°
Eccentricity
0.0001347
Mean motion
15.30194388 rev/d
Perigee alt
474.3 km
Apogee alt
476.2 km
Semi-major
6,853.4 km
B*
9.8994e-5
RAAN
80.3203°
Arg perigee
96.7877°
Mean anomaly
263.3277°
Rev number
10,137

§ Raw data

STARLINK-320841 60347U 24136U   26145.15006691  .00002573  00000+0  98994-4 0  99912 60347  53.1613  80.3203 0001347  96.7877 263.3277 15.30194388101370

JSON: /api/v1/satellites/60347 · /tle

For live sub-satellite position, see the globe view (requires WebGL).

§ Visibility from observer

Set your observer location to see the next 7 days of passes ≥ 10°. The values pass through the URL so the page stays shareable.

No JS? Fill the form by hand. The geolocation button needs JavaScript.